Regional Weather Roundup
Issued by NWS

Home | Current Version | Previous Version | Text Only | Print | Product List | Glossary Off
Versions: 1 2 3 4 5 6 7 8 9 10 11 12 13 14 15 16 17 18 19 20 21 22 23 24 25 26 27 28 29 30 31 32 33 34 35 36 37 38 39 40 41 42 43 44 45 46 47 48 49 50

000
ASUS45 KBOU 281810
RWRCO

WEATHER ROUNDUP FOR COLORADO
NATIONAL WEATHER SERVICE PUEBLO CO
1200 PM MDT TUE JUL 28 2015

NOTE: "FAIR" INDICATES FEW OR NO CLOUDS BELOW 12000 FEET WITH NO
SIGNIFICANT WEATHER AND/OR OBSTRUCTIONS TO VISIBILITY.

COZ001>005-013-030-031-281900-
...NORTHWEST COLORADO...

CITY           SKY/WX    TMP DP  RH WIND       PRES   REMARKS
CRAIG          SUNNY     71  34  25 N9        30.29F
HAYDEN         SUNNY     66  32  28 NW8       30.30S
MEEKER         SUNNY     71  38  29 S7        30.28S
MOUNT WERNER   NOT AVBL
STEAMBOAT SPGS FAIR      65  35  32 W5        30.31S
WALDEN         FAIR      70  30  23 W13       30.33S
$$

COZ006>008-011-281900-
...WEST CENTRAL VALLEYS...

CITY           SKY/WX    TMP DP  RH WIND       PRES   REMARKS
GRAND JUNCTION SUNNY     81  34  18 VRB5      30.16F
MONTROSE       SUNNY     77  35  21 NW7       30.24F
EAGLE          SUNNY     75  34  22 NE5       30.26F
RIFLE          SUNNY     77  30  17 N5        30.20F
DELTA          NOT AVBL
NUCLA          FAIR      79  28  15 W3        30.25F
$$

COZ017>023-064>068-281900-
...SOUTHWEST COLORADO...

CITY           SKY/WX    TMP DP  RH WIND       PRES   REMARKS
DURANGO        CLOUDY    79  32  18 SW5       30.26S
CORTEZ         PTSUNNY   85  29  13 VRB3      30.20S
PAGOSA SPRINGS PTSUNNY   77  28  16 S5        30.34S
TELLURIDE      SUNNY     71  29  21 NW3       30.45S
WOLF CREEK PAS NOT AVBL
$$

COZ009-010-012-014-032>034-037-058>063-281900-
...CENTRAL COLORADO...

CITY           SKY/WX    TMP DP  RH WIND       PRES   REMARKS
ASPEN          SUNNY     71  34  25 NW12G18   30.33S
BUENA VISTA    FAIR      80  19  10 W20G28    30.30S
COPPER MTN     SUNNY     59  23  25 W24G31    30.61R
BERTHOUD PASS  FAIR      48  37  66 W30G46    30.63R
COTTONWOOD PAS SUNNY     70  10  10 SW25G38   30.45S
GUNNISON       SUNNY     73  30  20 S7        30.34F
KREMMLING      SUNNY     75  27  16 SW12      30.31F
LEADVILLE      SUNNY     67  19  16 W12G24    30.44R
MONARCH PASS   SUNNY     55  23  28 W38G51    30.71S
SALIDA         FAIR      82  22  10 W21G30    30.35S
NIWOT RIDGE    NOT AVBL
SUNLIGHT       SUNNY     63  37  39 CALM      30.57S
WILKERSON PASS SUNNY     66  21  18 SW9G16    30.57S
$$

COZ069>075-281900-
...SAN LUIS VALLEY/SANGRE DE CRISTO MOUNTAINS...

CITY           SKY/WX    TMP DP  RH WIND       PRES   REMARKS
ALAMOSA        SUNNY     77  37  23 VRB6      30.29F
LA VETA PASS   MOSUNNY   68  34  28 MISG      30.51S
SAGUACHE       SUNNY     75  39  27 S10       30.32F
$$

COZ035-036-038>040-281900-
...NORTHERN COLORADO FRONT RANGE...

CITY           SKY/WX    TMP DP  RH WIND       PRES   REMARKS
DENVER INTL AP MOSUNNY   77  35  21 SE20G28   30.14F
DMNS CITY PARK NOT AVBL
AURORA         MOSUNNY   76  40  27 E18       30.16F
FRONT RANGE AP MOSUNNY   75  36  23 E10       30.17S
ERIE MUNI ARPT FAIR      79  33  19 SE10      30.13S
BOULDER MUN AP FAIR      77  37  24 SE6       30.14S HAZE
CENTENNIAL     MOSUNNY   79  41  25 E14G22    30.15F
BROOMFIELD     NOT AVBL
LOVELAND       SUNNY     77  39  25 SE7       30.14F
LONGMONT       FAIR      81  36  20 SE8G21    30.14F
$$

COZ041-046-047-076>085-087-088-281900-
...PIKES PEAK/PALMER DIVIDE AND SOUTHERN FOOTHILLS...

CITY           SKY/WX    TMP DP  RH WIND       PRES   REMARKS
COLO. SPRINGS  MOSUNNY   78  37  22 S18       30.22S
A. F. ACADEMY  SUNNY     78  38  23 SE20G25   30.21F
ELLICOTT       FAIR     N/A N/A N/A SE8       30.22S
FALCON         FAIR      73  38  28 SE13G21   30.28S
FORT CARSON    MOSUNNY   79  41  26 SE15      30.19S
LIMON          SUNNY     76  40  27 NE14      30.18S
MONUMENT HILL  SUNNY     73  41  31 S20G26    30.25S
TRINIDAD       SUNNY     81  39  22 SE8       30.20F
$$

COZ042>045-048>051-090-091-281900-
...NORTHEAST COLORADO...

CITY           SKY/WX    TMP DP  RH WIND       PRES   REMARKS
GREELEY ARPT   SUNNY     79  41  25 NE5       30.13F
AKRON          SUNNY     79  33  19 N17G24    30.14R
BURLINGTON     SUNNY     78  39  24 NE24      30.11R
WRAY           FAIR      81  36  19 N14G22    30.10S
STERLING       NOT AVBL
HOLYOKE        FAIR      81  37  21 N13G21    30.10S
FORT MORGAN    FAIR      80  37  21 N10       30.13S
$$

COZ086-089-092>099-281900-
...SOUTHEAST COLORADO...

CITY           SKY/WX    TMP DP  RH WIND       PRES   REMARKS
PUEBLO         SUNNY     84  34  16 SE15      30.13S
LA JUNTA       SUNNY     85  36  17 VRB3      30.11F
LAMAR          SUNNY     85  40  20 NE12G20   30.07S
SPRINGFIELD      N/A     80  38  22 N18       30.11S
$$




USA.gov is the U.S. government's official web portal to all federal, state and local government web resources and services.